{"data":{"norad_id":67838,"intl_designator":"2026-033T","name":"STARLINK-36654","alt_names":[],"object_type":"PAYLOAD","status":"ACTIVE","operator":null,"country":"US","launch_date":"2026-02-16","launch_site_code":"AFETR","launch_vehicle":null,"mission":null,"orbit_class":"UNKNOWN","rcs_meters":null,"size_class":null,"mass_kg":null,"dimensions":null,"purposes":["comms"],"wikipedia_slug":null,"has_3d_model":false,"image_url":null,"decayed_at":null,"tle_current":{"epoch":"2026-09-18T23:29:58.832160Z","epoch_age_seconds":197925,"freshness":"STALE","line1":"1 67838U 26033T   26261.97915315  .00009986  00000+0  37193-3 0  9990","line2":"2 67838  43.0026 255.5901 0001816 268.1057  91.9586 15.27580395 34236","mean_motion":15.27580395,"eccentricity":0.0001816,"inclination_deg":43.0026,"raan_deg":255.5901,"arg_perigee_deg":268.1057,"mean_anomaly_deg":91.9586,"bstar":0.00037193,"rev_number":3423,"period_min":94.266724338263,"perigee_km":481.80192208756,"apogee_km":484.29390444806,"semimajor_km":6861.1849132678,"source":"CELESTRAK","updated_at":"2026-09-20T09:00:43.670564Z"}}}